www.pogodaiklimat.ru

Погода и климат >> Архив погоды >> Антарктида >> Bernardo o`Higgins


ПОГОДА в Bernardo o`Higgins

  • Прогноз погоды в Bernardo o`Higgins
  • Монитор погоды в Bernardo o`Higgins
  • Климат города

АРХИВ ПОГОДЫ в Bernardo o`Higgins

Время (UTC), дата Ветер
(напр.,м/с)
 
Видим.   Явления Облачность Т
(С)
Тd
(С)
f
(%)
Тe
(С)
Тes
(С)
Комфортность P
(гПа)
Po
(гПа)
Тmin
(С)
Tmax
(С)
R
(мм)
R24
(мм)
S
(см)
00 14.05 Ю 5 н/о {туман} 9/0
[]
-4.0 -4.7 95 -11 -11 995.4 993.9 -4.0
03 14.05 Ю 2 н/о 10/0
[]
-3.0 -4.9 87 -6 -6 994.7 993.2
06 14.05 СВ 4 н/о 9/0
[]
-3.8 -5.9 85 -10 -10 995.2 993.7
09 14.05 З 2 н/о 10/0
[]
-3.0 -4.5 89 -6 -6 995.8 994.3
12 14.05 В 1 н/о 9/0
[]
-3.5 -4.7 91 -6 -6 995.1 993.6 -3.8
15 14.05 Ю 5 10 км 10/10 1500 м
[St]
-3.0 -4.6 89 -10 -10 992.7 991.2
18 14.05 Ю 7 10 км 10/10 1500 м
[St]
-2.5 -4.8 84 -10 -10 989.7 988.2
21 14.05 Ю 14 н/о 10/0
[]
-4.1 -8.3 73 -17 -17 988.4 986.9
00 15.05 Ю 20 н/о 9/0
[]
-2.8 -8.0 67 -14 -14 994.1 992.6 -0.8
03 15.05 Ю 17 н/о 10/0
[]
-2.7 -7.1 72 -13 -13 994.6 993.1
06 15.05 ЮВ 21 н/о 9/0
[]
-3.8 -8.4 70 -16 -16 993.7 992.2
09 15.05 Ю 17 н/о 10/0
[]
-3.0 -11.1 54 -13 -13 998.5 997.0
12 15.05 ЮВ 6 10 км 1/1 1500 м
[Cu hum]
-2.3 -12.3 46 -9 -9 1000.6 999.1 -8.0
15 15.05 Ю 9 10 км 1/1 1500 м
[Cu hum]
-1.1 -12.5 42 -8 -8 1000.8 999.3
18 15.05 ЮВ 3 14 км 1/1 1500 м
[Cu hum]
-1.3 -9.2 55 -5 -5 1001.1 999.6
21 15.05 Ю 3 14 км 1/1 1500 м
[Cu hum]
-0.9 -11.4 45 -5 -5 1001.9 1000.4
00 16.05 Ю 7 н/о 9/0
[]
-1.3 -8.0 60 -8 -8 1001.6 1000.1 -0.4
03 16.05 Ю 9 н/о 10/0
[]
-0.2 -10.8 45 -7 -7 1000.8 999.3
06 16.05 Ю 11 н/о 9/0
[]
-6.4 -15.3 49 -16 -16 1003.5 1002.0
09 16.05 Ю 14 н/о 10/0
[]
-9.6 -14.4 68 -22 -22 1004.8 1003.3
12 16.05 ЮВ 28 н/о сильная метель 10/10 90 м
[Cb cap]
-11.0 -13.2 84 -27 -27 1000.8 999.3 -11.0
15 16.05 Ю 9 10 км 8/8 1500 м
[Frnb]
-10.8 -13.8 79 -21 -21 1010.9 1009.5
18 16.05 Ю 12 10 км {метель} 10/10 1500 м
[St]
-10.9 -14.5 75 -22 -22 1012.2 1010.7
21 16.05 Ю 9 н/о 10/0
[]
-10.4 -15.4 67 -25 -25 1010.4 1008.9
00 17.05 ЮЗ 6 н/о 9/0
[]
-5.2 -14.2 49 -12 -12 1011.5 1010.0 -5.2
03 17.05 Ю 7 н/о 10/0
[]
-5.0 -13.8 50 -13 -13 1011.9 1010.4
06 17.05 ЮЗ 6 н/о 9/0
[]
-4.9 -12.1 57 -12 -12 1012.3 1010.8
09 17.05 Ю 3 н/о 10/0
[]
-5.2 -11.6 61 -10 -10 1012.2 1010.7
12 17.05 В 1 10 км 5/5 1500 м
[Cu Sc]
-6.3 -10.9 70 -9 -9 1011.8 1010.3 -6.3
15 17.05 СВ 4 10 км 5/5 1500 м
[Cu hum]
-6.0 -9.6 76 -12 -12 1012.1 1010.6
18 17.05 СВ 2 10 км 9/9 1500 м
[Cu hum]
-5.3 -8.5 78 -9 -9 1011.9 1010.4
21 17.05 Ю 3 н/о 10/0
[]
-4.0 -7.6 76 -9 -9 1011.6 1010.1
00 18.05 ЮЗ 8 н/о 9/0
[]
-3.3 -7.6 72 -11 -11 1010.6 1009.1 -3.3
03 18.05 ЮЗ 9 н/о 10/0
[]
-3.8 -7.4 76 -12 -12 1008.8 1007.3
06 18.05 ЮЗ 11 н/о 9/0
[]
-3.5 -7.1 76 -13 -13 1008.2 1006.7
09 18.05 ЮЗ 8 н/о 10/0
[]
-3.2 -6.6 77 -12 -12 1008.0 1006.5
12 18.05 ЮЗ 6 10 км 3/3 1500 м
[Cu hum]
-3.8 -7.9 73 -11 -11 1008.3 1006.8 -3.8
15 18.05 Ю 6 35 км 3/3 1500 м
[Cu hum]
-3.2 -8.1 69 -10 -10 1009.4 1007.9
18 18.05 Ю 5 10 км 4/0
[Ac trans]
-3.3 -7.5 73 -10 -10 1009.3 1007.8
21 18.05 Ю 7 н/о 10/0
[]
-3.2 -7.3 73 -11 -11 1009.4 1007.9
00 19.05 Ю 6 н/о 9/0
[]
-2.6 -5.6 80 -10 -10 1008.8 1007.3 -2.6
03 19.05 ЮЗ 7 н/о 10/0
[]
-2.0 -4.3 84 -9 -9 1008.1 1006.6
06 19.05 ЮЗ 9 н/о 9/0
[]
-1.6 -3.3 88 -10 -10 1008.8 1007.3
09 19.05 ЮЗ 6 н/о 10/0
[]
-1.8 -3.4 89 -9 -9 1008.0 1006.5
12 19.05 ЮЗ 5 н/о 10/10 1500 м
[St]
-2.2 -2.9 95 -9 -9 1007.3 1005.8 -2.6
15 19.05 ЮЗ 4 10 км 10/10 1500 м
[St]
-2.6 -3.4 94 -8 -8 1006.0 1004.5
18 19.05 Ю 5 10 км 10/10 1000 м
[St]
-0.9 -2.1 92 -7 -7 1003.9 1002.4
21 19.05 СВ 2 н/о н/о -0.3 -1.1 94 -4 -4 1002.4 1000.9
00 20.05 СВ 2 н/о 9/0
[]
+0.4 0.0 97 -3 -3 1000.1 998.6 +0.6
03 20.05 С 5 н/о 10/0
[]
+0.9 +0.4 96 -5 -5 998.0 996.5
06 20.05 СВ 4 н/о 9/0
[]
+0.3 -0.1 97 -5 -5 996.8 995.3
09 20.05 СВ 2 н/о мгла 10/0
[]
-0.2 -0.4 99 -4 -4 996.9 995.4
12 20.05 В 5 10 км 10/10 1000 м
[Frnb]
+0.3 -0.1 97 -6 -6 997.1 995.6 -2.0 3
15 20.05 СВ 5 10 км 10/10 1200 м
[Frnb]
+2.5 +1.3 92 -3 -3 996.4 994.9

 

Местоположение метеостанции Bernardo o`Higgins (Антарктида): широта -63.31 долгота -57.90 высота над уровнем моря 10 м.

В архиве по умолчанию представлена погода в Bernardo o`Higgins за последнюю неделю. Архивные данные за месяц целиком и за предыдущие месяцы, начиная с января 2011 года, Вы можете получить, выбрав интересующий диапазон дат из раскрывающегося списка и нажав кнопку "Ввод!".


*Определитесь, кто Вы:
робот инопланетянин человек

Внимание! Время в таблицах - всемирное. Для получения местного времени необходимо прибавить поправку, которая в Bernardo o`Higgins равна 0 ч.

Смотрите также архив погоды в соседних городах и на ближайших метеорологических станциях:

Погода в Esperanza Base (Антарктида) (47 км)
Погода в Marambio Base (Антарктида) (118 км)
Погода в Carlini Base (Антарктида) (126 км)
Погода в Captain Arturo Prat Base (Антарктида) (127 км)
Погода в King Sejong (Антарктида) (130 км)
Погода в Great Wall (Антарктида) (134 км)
Погода в Bellingshausen (Антарктида) (134 км)
Погода в Dinamet-Uruguay (Антарктида) (134 км)
Погода в Frei Chi-Base (Антарктида) (137 км)
Погода в Juan Carlos Island (Антарктида) (145 км)

Пояснения к столбцам:

Ветер - указаны скорость ветра в м/с - средняя за 10 мин, порывы в срок и между сроками (в фигурных скобках) и направление, откуда дует ветер: С - северный, СВ - северо-восточный, В - восточный, ЮВ - юго-восточный, Ю - южный, ЮЗ - юго-западный, З - западный, СЗ - северо-западный.
Видимость - горизонтальная дальность видимости в метрах или километрах. При видимости от 1 до 10 км при отсутствии осадков обычно наблюдается дымка, при ухудшении видимости до 1 км и менее - туман. В сухую погоду видимость может ухудшаться дымом, пылью или мглою.
Явления - указаны атмосферные явления, наблюдавшиеся в срок или в последний час перед сроком; фигурными скобками обозначены явления, наблюдавшиеся между сроками (за 1-3 часа до срока); квадратными скобками обозначены град или гололедные отложения с указанием их диаметра в мм.
Облачность - указаны через наклонную черту общая и нижняя облачность в баллах и высота нижней границы облаков в метрах; квадратными скобками обозначены формы облаков: Ci - перистые, Cs - перисто-слоистые, Cc - перисто-кучевые, Ac - высококучевые, As - высокослоистые, Sc - слоисто-кучевые, Ns - слоисто-дождевые, Cu - кучевые, Cb - кучево-дождевые. Подробнее классификацию облаков см. в Атласе облаков (PDF).
T - Температура воздуха - температура, измеренная на высоте 2 м над землей.
Td - Температура точки росы - температура, при понижении до которой содержащийся в воздухе водяной пар достигнет насыщения.
f - Относительная влажность воздуха - влажноcть воздуха, измеренная на высоте 2 м над землей.
Te - Эффективная температура - температура, которую ощущает одетый по сезону человек в тени. Характеристика душности погоды. При расчете учитывается влияние влажности воздуха и скорости ветра на теплоощущения человека.
Tes - Эффективная температура на солнце - температура, которую ощущает человек, с поправкой на солнечный нагрев. Характеристика знойности погоды. Зависит от высоты солнца над горизонтом, облачности и скорости ветра. Ночью, в пасмурную погоду, а также при ветре 12 м/с и более поправка равна нулю.
P - Атмосферное давление - приведенное к уровню моря атмосферное давление.
Po - Атмосферное давление - измеренное на уровне метеостанции атмосферное давление.
Tmin - Минимальная температура - минимум температуры воздуха на высоте 2 м над землей.
Tmax - Максимальная температура - максимум температуры воздуха на высоте 2 м над землей.
R - Количество осадков - Количество выпавших осадков за период времени, мм. При наведении курсора мыши на число - период времени, за который выпало указанное количество осадков.
R24 - Количество осадков - Количество выпавших осадков за 24 часа, мм.
S - Снежный покров - Высота снежного покрова, см. При наведении курсора мыши на число - состояние снежного покрова и степень покрытия местности в баллах.